Wind_Speed
60 59 58 56 55 53 53 52 51 51 52 52 53 54 56 56 56 56 56 57 59 60 61 62 63 64 65 66 67 68 69 70 71 72 74 74 76 77
62 60 59 58 56 55 54 53 54 54 54 54 56 57 58 59 59 59 60 60 61 63 64 65 66 67 69 70 70 71 72 73 74 76 77 79 80 82
63 62 60 59 58 57 57 56 56 57 58 58 59 59 60 62 62 63 62 63 65 66 67 68 69 70 71 72 73 74 75 76 77 78 79 81 81 82
61 61 60 60 59 59 59 58 58 59 60 61 61 63 64 64 65 65 66 67 68 68 69 70 71 72 73 74 75 76 76 77 79 79 80 80 81 82
59 59 59 60 59 60 58 58 58 59 61 62 63 64 66 67 68 68 68 68 69 70 71 72 73 74 75 76 77 77 78 79 79 78 78 78 78 78
55 57 57 58 58 58 58 58 59 61 62 64 65 66 67 69 69 69 69 70 70 71 73 74 76 76 77 78 79 78 78 76 75 73 72 71 71 70
48 50 52 53 54 55 56 57 59 61 62 64 66 67 68 69 70 69 70 70 72 74 76 77 78 78 79 79 78 76 74 71 68 66 65 63 62 62
43 45 47 48 50 52 54 56 58 61 62 64 65 66 68 69 69 70 71 73 74 76 77 78 78 77 77 74 72 69 67 64 62 59 58 56 54 54
37 39 42 45 47 50 53 56 59 60 61 62 63 65 66 68 70 72 74 75 76 77 77 75 74 71 68 65 64 62 60 58 55 53 52 50 48 47
32 37 39 43 46 49 51 53 54 56 58 60 62 65 67 70 72 74 75 75 75 76 75 70 65 61 58 57 57 56 55 52 50 47 45 44 43 43
32 35 38 41 43 46 48 50 52 55 58 61 64 67 69 71 72 72 72 72 69 67 65 59 55 52 50 51 51 51 50 48 46 44 43 42 41 39
29 32 35 37 40 43 45 49 52 56 60 63 65 67 68 68 68 67 66 62 58 55 53 49 47 46 42 42 45 46 46 45 44 44 43 41 39 37
27 30 33 36 40 43 47 51 54 58 61 62 63 63 62 61 60 56 52 49 46 44 43 40 39 39 37 36 38 41 42 42 42 43 42 40 38 37
28 31 35 38 42 46 49 53 56 58 59 59 58 57 55 52 49 46 43 41 39 38 37 36 34 34 34 34 35 37 38 39 40 39 39 38 38 37
31 34 38 41 45 48 52 54 57 57 57 55 53 51 48 45 42 39 37 35 35 34 34 34 33 33 34 34 34 35 36 35 37 37 36 35 36 36
34 37 40 44 47 51 53 55 56 54 52 50 48 45 41 38 35 34 33 32 33 34 36 36 35 36 35 35 36 36 35 33 33 33 32 32 34 35
37 40 43 47 50 52 54 54 52 49 46 44 41 37 35 33 32 31 32 32 33 34 36 37 37 37 36 36 36 36 35 34 33 32 31 30 32 34
40 43 46 49 51 52 51 49 45 42 39 36 34 32 32 32 32 33 33 33 34 34 35 36 37 37 35 34 37 37 36 35 33 33 33 31 31 33
43 45 48 50 50 49 46 43 40 37 34 32 31 31 31 32 33 34 34 34 34 34 35 37 38 37 34 31 31 37 37 34 33 32 33 32 30 30
44 46 48 49 47 44 41 38 36 34 32 31 31 32 32 33 34 34 34 34 34 34 34 36 38 38 36 33 31 33 38 37 34 32 31 30 30 30
46 47 48 47 44 41 38 36 34 33 32 32 33 33 34 34 35 35 35 35 35 34 34 35 37 38 38 37 34 32 35 37 37 35 32 30 28 28
47 48 47 45 42 39 36 35 34 34 34 34 35 36 36 36 36 36 36 36 36 35 34 34 35 36 37 37 36 34 32 33 35 36 36 33 28 25
48 48 47 43 40 37 36 35 35 35 36 36 37 37 38 38 38 37 37 37 36 36 35 34 34 35 36 36 36 35 33 32 32 32 33 34 31 28
Wind_Direction
260 262 264 266 268 270 273 274 277 278 279 280 281 282 283 284 283 282 284 284 285 286 286 286 286 287 288 287 287 286 286 285 284 283 282 280 279 277
260 262 264 266 268 270 272 275 277 278 279 280 281 282 283 283 284 285 285 285 286 286 286 287 287 287 287 287 287 286 286 285 284 283 282 280 279 277
259 261 263 265 268 270 272 274 277 278 279 279 280 282 283 284 285 286 286 287 287 287 287 287 288 288 287 287 287 287 286 285 284 283 282 281 279 278
258 260 262 266 267 270 272 275 276 277 279 280 281 283 284 285 286 287 288 288 288 288 288 289 289 289 289 288 288 288 287 286 285 284 283 281 280 278
256 259 262 265 268 270 272 274 276 277 279 280 282 283 285 286 287 288 289 290 290 290 290 291 290 290 290 290 290 289 288 287 286 285 283 282 281 280
255 259 262 265 267 270 272 273 275 276 279 280 282 284 285 286 288 289 290 291 291 292 292 292 292 292 291 291 291 290 289 288 287 286 285 284 283 281
256 259 261 264 267 270 272 274 275 277 279 280 282 284 286 287 289 290 291 292 292 292 292 293 293 293 292 292 291 290 290 289 288 287 287 286 285 283
256 259 263 266 269 270 273 274 276 277 279 281 284 286 288 290 291 292 293 293 292 292 293 293 293 293 293 292 291 291 291 291 290 290 289 288 287 286
259 262 264 266 269 272 274 275 276 279 283 285 287 290 291 292 293 293 293 293 293 292 293 293 293 293 293 292 292 292 293 293 292 292 291 290 289 288
260 263 266 269 271 274 278 280 283 285 288 290 292 293 294 294 294 294 293 293 293 293 293 294 293 293 293 293 293 294 295 295 294 293 292 291 290 289
265 267 270 273 276 280 284 287 290 292 293 294 295 295 295 295 295 294 294 293 293 293 294 294 293 293 294 294 294 295 296 297 297 296 295 293 291 290
273 276 279 281 284 288 291 293 294 295 296 297 297 297 296 296 295 294 294 294 294 293 294 295 294 294 293 293 295 296 297 298 298 298 297 296 293 292
283 286 287 289 292 294 295 297 299 300 300 300 299 298 298 298 298 297 297 296 296 295 295 296 296 295 294 293 293 295 297 297 298 298 298 297 295 294
292 294 295 296 297 298 300 302 303 303 302 301 301 300 301 301 301 301 300 299 299 299 299 300 299 298 297 295 295 295 297 298 298 298 297 296 294 294
299 299 299 300 301 303 305 305 306 305 304 303 303 303 304 304 304 304 304 304 304 303 303 303 303 303 303 301 299 299 299 299 299 298 297 295 293 293
304 303 304 305 306 307 308 308 308 307 306 305 305 306 307 307 308 308 308 308 307 307 307 306 307 309 309 307 304 303 303 303 301 299 297 296 294 293
307 307 308 309 310 311 311 310 310 309 308 309 309 309 310 311 311 310 309 308 307 307 306 307 307 309 310 309 306 305 307 308 307 303 300 299 297 295
310 310 312 313 313 313 312 312 311 311 312 312 312 312 311 311 311 310 309 308 307 307 305 305 306 308 309 310 308 307 308 309 308 306 303 302 298 296
313 314 315 316 316 315 314 313 312 312 313 314 314 313 313 312 311 310 309 309 308 307 306 305 306 307 307 308 309 307 307 307 307 306 305 304 301 297
316 317 318 318 317 315 313 312 312 312 313 313 314 314 313 312 312 311 310 309 308 308 307 306 307 308 309 311 313 311 309 309 310 309 307 304 302 299
318 320 320 319 316 314 311 310 310 310 311 312 313 313 312 312 312 311 310 309 309 308 308 308 308 309 311 312 314 313 310 309 310 311 309 306 302 300
321 322 321 318 315 312 309 307 307 307 308 309 310 311 312 311 311 311 310 310 309 309 309 309 309 309 309 310 312 312 310 308 309 310 309 308 305 301
323 323 321 318 314 310 307 305 305 305 306 307 308 309 310 311 311 311 310 310 310 310 309 309 309 309 308 309 311 311 310 309 308 308 306 305 305 303
Height
5702 5703 5704 5704 5704 5704 5703 5703 5702 5700 5698 5696 5693 5690 5687 5684 5681 5679 5676 5673 5670 5666 5663 5659 5656 5653 5650 5647 5644 5640 5637 5633 5630 5626 5623 5620 5617 5614
5689 5690 5691 5692 5692 5692 5691 5690 5689 5688 5684 5682 5679 5676 5672 5669 5666 5663 5661 5657 5654 5650 5645 5642 5638 5635 5631 5627 5623 5619 5616 5611 5607 5603 5599 5595 5591 5587
5676 5677 5678 5679 5679 5679 5679 5677 5676 5674 5671 5668 5665 5661 5657 5653 5650 5647 5643 5640 5636 5631 5627 5623 5619 5614 5610 5606 5602 5598 5593 5588 5583 5578 5573 5568 5563 5559
5662 5664 5666 5667 5667 5666 5666 5664 5662 5660 5657 5653 5650 5646 5642 5638 5634 5630 5626 5621 5617 5612 5607 5602 5598 5593 5588 5584 5579 5574 5569 5564 5558 5552 5547 5541 5535 5530
5649 5651 5653 5654 5654 5654 5653 5651 5649 5646 5643 5639 5635 5631 5626 5622 5618 5613 5608 5603 5597 5591 5586 5581 5576 5571 5565 5560 5555 5550 5544 5538 5532 5526 5520 5514 5508 5502
5635 5638 5640 5641 5641 5641 5639 5637 5635 5632 5628 5625 5620 5616 5611 5605 5600 5595 5590 5584 5577 5571 5564 5559 5553 5547 5541 5535 5530 5524 5518 5512 5506 5500 5495 5489 5483 5477
5623 5625 5627 5628 5628 5627 5626 5623 5621 5618 5614 5610 5605 5600 5594 5589 5583 5577 5572 5565 5558 5550 5544 5537 5530 5524 5516 5510 5504 5498 5493 5488 5483 5477 5472 5466 5460 5454
5612 5614 5615 5616 5616 5615 5613 5610 5607 5603 5599 5594 5589 5583 5578 5571 5565 5559 5553 5546 5539 5530 5524 5516 5506 5500 5492 5485 5479 5473 5469 5465 5461 5456 5451 5446 5440 5434
5602 5604 5605 5605 5604 5603 5600 5597 5593 5588 5584 5579 5573 5567 5561 5554 5548 5540 5533 5525 5517 5507 5502 5496 5485 5479 5471 5463 5457 5453 5449 5445 5442 5437 5433 5427 5422 5416
5593 5595 5595 5594 5593 5591 5587 5583 5578 5573 5569 5563 5558 5550 5543 5536 5528 5521 5512 5504 5495 5485 5479 5476 5467 5461 5454 5445 5439 5435 5432 5428 5425 5420 5416 5411 5406 5401
5586 5586 5585 5584 5582 5579 5575 5570 5564 5559 5553 5547 5540 5533 5525 5516 5508 5500 5491 5484 5476 5466 5459 5457 5451 5446 5440 5431 5424 5419 5416 5413 5409 5405 5401 5396 5392 5387
5579 5578 5576 5574 5571 5567 5563 5557 5551 5545 5538 5530 5522 5514 5505 5497 5488 5480 5472 5464 5457 5451 5444 5441 5435 5431 5430 5422 5413 5407 5403 5399 5395 5391 5386 5382 5377 5373
5572 5570 5567 5564 5560 5556 5550 5544 5537 5529 5521 5512 5503 5495 5486 5478 5470 5462 5454 5448 5442 5437 5432 5429 5424 5418 5415 5413 5405 5397 5393 5388 5383 5378 5373 5368 5364 5360
5564 5561 5558 5554 5549 5543 5537 5529 5521 5513 5504 5495 5486 5477 5469 5461 5454 5447 5441 5435 5430 5425 5420 5417 5413 5409 5404 5400 5396 5389 5383 5377 5372 5367 5362 5357 5352 5347
5556 5552 5548 5543 5537 5530 5523 5514 5505 5496 5487 5478 5470 5462 5454 5447 5440 5435 5429 5424 5419 5415 5410 5406 5402 5398 5393 5388 5384 5378 5373 5368 5361 5356 5351 5346 5341 5336
5547 5543 5537 5531 5524 5517 5508 5499 5490 5481 5472 5463 5455 5448 5441 5435 5430 5425 5420 5416 5411 5406 5401 5396 5391 5387 5382 5377 5371 5366 5361 5357 5352 5346 5341 5336 5330 5326
5537 5532 5526 5519 5511 5503 5494 5484 5475 5467 5458 5451 5443 5437 5432 5427 5422 5417 5413 5408 5403 5398 5393 5387 5382 5377 5372 5366 5360 5355 5350 5345 5340 5335 5331 5327 5321 5316
5527 5520 5513 5506 5497 5488 5479 5471 5462 5455 5447 5441 5435 5429 5424 5419 5414 5410 5405 5400 5395 5390 5384 5379 5373 5369 5364 5358 5351 5344 5340 5335 5331 5325 5320 5316 5312 5306
5516 5509 5501 5493 5484 5475 5466 5459 5451 5445 5438 5433 5427 5422 5417 5412 5407 5401 5396 5392 5387 5381 5375 5369 5363 5358 5354 5351 5346 5335 5329 5326 5322 5317 5311 5306 5302 5297
5505 5497 5489 5480 5471 5463 5455 5448 5442 5436 5430 5425 5420 5415 5409 5404 5399 5393 5388 5383 5378 5373 5367 5360 5353 5348 5342 5339 5336 5329 5319 5313 5310 5307 5302 5297 5292 5288
5494 5486 5477 5469 5460 5453 5446 5440 5434 5428 5423 5417 5412 5407 5401 5396 5390 5385 5379 5374 5368 5363 5358 5352 5345 5338 5332 5327 5324 5320 5313 5304 5299 5295 5291 5288 5284 5280
5483 5475 5466 5458 5450 5443 5437 5431 5425 5420 5415 5409 5404 5398 5393 5387 5381 5376 5370 5365 5359 5353 5348 5343 5337 5330 5324 5318 5313 5310 5305 5299 5292 5285 5280 5276 5273 5271
5473 5464 5455 5447 5440 5433 5427 5422 5416 5411 5406 5400 5395 5389 5383 5377 5372 5366 5360 5355 5349 5344 5338 5333 5328 5322 5315 5309 5304 5299 5294 5289 5284 5279 5273 5266 5263 5261